Location: Cranbrook Institute of Science
(42.5830°N, 83.2450°W)
Time: 04:04:15
(UTC-04:00)

Daily predictions for brighter satellites

Satellite Brightness Start Highest point End
(mag) Time Altitude Azimuth Time Altitude Azimuth Time Altitude Azimuth
ATLAS 3B R/B 4.4 02:58:26 27° NNW 02:58:26 27° NNW 03:03:05 10° NNE
CZ-2D R/B 4.5 03:09:55 10° NE 03:11:58 19° NE 03:11:58 19° NE
Cosmos 1980 Rocket 4.3 03:19:14 23° NE 03:19:14 23° NE 03:21:19 10° NNE
Resurs 1-4 Rocket 4.4 03:14:46 10° NE 03:16:34 19° NE 03:16:34 19° NE
FALCON 9 R/B 4.3 03:31:23 60° SSE 03:31:23 60° SSE 04:01:03 10° ESE
Cosmos 2263 Rocket 4.1 03:27:19 10° N 03:31:06 25° NE 03:31:06 25° NE
Cosmos 2315 Rocket 4.4 04:10:00 58° ENE 04:10:00 58° ENE 04:15:21 10° NNE
Lacrosse 4 Rocket 4.4 04:09:07 10° N 04:11:29 15° NE 04:13:52 10° E
SL-16 R/B 3.7 04:16:19 32° NNW 04:16:19 32° NNW 04:19:28 10° NNW
Cosmos 2322 Rocket 2.7 04:28:06 54° NNE 04:28:06 54° NNE 04:32:23 10° NNE
Cosmos 1709 Rocket 4.4 04:22:51 10° N 04:27:32 53° NNW 04:27:32 53° NNW
CENTAUR R/B 2.9 04:30:07 56° NNW 04:30:07 56° NNW 04:36:19 10° NNE
ADEOS Rocket 3.2 04:24:58 10° NNE 04:29:19 55° N 04:29:19 55° N
SL-16 R/B 2.6 04:31:51 58° NNE 04:31:51 58° NNE 04:36:23 10° NNE
USA 215 3.6 04:25:29 10° ESE 04:31:57 63° NE 04:38:24 10° NW
ARIANE 5 R/B 3.8 04:41:16 10° N 04:44:10 31° NNW 04:44:10 31° NNW
COBE Rocket 4.4 04:46:54 10° N 04:50:56 55° NNW 04:50:56 55° NNW
CZ-2D R/B 3.2 04:49:36 10° N 04:53:19 35° NNW 04:53:19 35° NNW
Cosmos 1544 Rocket 4.1 04:52:37 10° N 04:57:02 57° E 04:57:05 57° E
Cosmos 2360 Rocket 2.4 04:57:54 56° SSE 04:58:49 65° ESE 05:04:25 10° NNE
Resurs 1-4 Rocket 3.3 04:54:26 10° N 04:57:39 30° NNW 04:57:39 30° NNW
Cosmos 1980 Rocket 3.8 05:01:00 21° NW 05:01:00 21° NW 05:04:28 10° N
CZ-4B R/B 4.1 04:59:15 10° NNE 05:02:24 35° E 05:02:24 35° E
Cosmos 1812 4.0 05:04:57 35° NNE 05:04:57 35° NNE 05:07:18 10° N
Okean O Rocket 2.3 05:04:21 10° NNE 05:08:42 51° E 05:09:49 40° SE
Cosmos 2263 Rocket 3.7 05:10:47 10° NW 05:12:41 21° NW 05:12:41 21° NW
Cosmos 2184 Rocket 3.9 05:10:07 10° N 05:16:21 85° W 05:22:36 10° S
Cosmos 1340 3.0 05:18:04 62° E 05:18:04 62° E 05:21:44 10° NNE
Meteor 1-12 Rocket 4.2 05:12:59 10° N 05:18:40 83° E 05:24:22 10° SSE
DELTA 2 R/B (1) 4.3 05:20:34 37° S 05:21:28 39° SSE 05:26:36 10° E
Cosmos 1777 Rocket 3.9 05:16:18 10° NNW 05:21:37 77° WSW 05:26:53 10° SSE
ATLAS 5 CENTAUR R/B 4.4 05:17:02 10° NNW 05:21:55 27° NE 05:27:10 10° E
Meteor 1-18 Rocket 4.0 05:22:11 46° SSW 05:23:54 80° W 05:29:31 10° N
MOS 1-B 4.3 05:18:34 10° N 05:24:20 64° WNW 05:25:50 47° SW
Cosmos 1743 4.2 05:23:03 10° N 05:26:41 37° ENE 05:30:16 10° SE
ADEOS II 2.4 05:21:48 10° NNE 05:27:04 67° ESE 05:30:52 19° S
Cosmos 1455 Rocket 2.9 05:26:37 10° NNW 05:31:01 75° W 05:32:07 49° SSW
Lacrosse 5 3.9 05:34:51 14° S 05:34:51 14° S 05:35:39 10° S
Cosmos 2322 3.6 05:29:55 42° SW 05:31:56 79° WNW 05:37:42 10° NNE
MOS 1 Rocket 3.3 05:28:09 10° N 05:32:50 56° WNW 05:33:14 54° W
EO 1 Del DPAF 3.1 05:34:10 22° SSE 05:36:33 90° WSW 05:40:26 10° NNW
Cosmos 1975 Rocket 4.5 05:38:18 23° NW 05:38:18 23° NW 05:40:41 10° NNW
Okean 1 3.3 05:40:05 57° W 05:40:11 58° W 05:44:14 10° N
Cosmos 1238 Rocket 2.7 05:46:13 29° SSE 05:47:27 55° E 05:50:21 10° NNE
Cosmos 2154 Rocket 3.9 05:43:46 10° N 05:50:00 87° W 05:56:12 10° S
Cosmos 1975 3.0 05:46:22 10° NNW 05:50:17 47° W 05:50:38 45° WSW
Lacrosse 4 Rocket 1.3 05:46:28 10° NNW 05:50:39 70° WSW 05:54:53 10° SSE
Cosmos 2333 4.4 05:46:11 14° SSW 05:51:02 70° ESE 05:56:43 10° NNE
Cosmos 1844 4.4 05:46:44 10° NNW 05:52:26 56° ENE 05:58:02 10° SE
CZ-4B DEB 4.2 05:50:06 10° N 05:55:40 73° WNW 06:00:33 13° SSW
Cosmos 1536 Rocket 3.7 05:54:41 30° SW 05:56:36 55° W 06:01:01 10° N
Cosmos 2208 Rocket 4.0 05:53:05 17° SSW 05:57:23 86° WNW 06:02:52 10° NNE
Cosmos 1500 3.9 05:54:01 10° NNW 05:57:02 34° WNW 05:57:02 34° WNW
Tiangong 2 0.9 05:59:14 57° WSW 05:59:41 71° SSW 06:02:49 10° ESE
CZ-4B R/B 3.2 05:54:21 10° N 05:59:58 67° WNW 06:04:58 13° SSW
Meteor PRIRODA 3.8 05:57:27 10° NNE 06:01:14 74° ESE 06:04:58 10° S
IRAS Rocket 4.2 05:57:37 10° N 06:03:07 70° WNW 06:08:32 11° SSW
Okean 1-7 Rocket 4.0 06:03:56 10° S 06:08:25 67° E 06:12:54 10° NNE
Cosmos 2181 Rocket 4.1 06:04:29 10° S 06:10:40 82° E 06:17:00 10° N
Cosmos 2322 Rocket 3.9 06:09:55 14° WNW 06:11:36 16° NW 06:15:02 10° N
PSLV R/B 3.8 06:07:33 10° N 06:11:43 47° WNW 06:14:44 18° SW
Gblst 52 Del rocket 4.3 06:06:19 11° WNW 06:11:51 74° SW 06:18:17 10° SE
SL-8 Rocket 4.4 06:07:43 10° N 06:13:57 67° E 06:20:04 10° SSE
USA 215 3.6 06:09:00 10° SSE 06:15:07 41° SW 06:21:15 10° WNW
Nadezhda 1 Rocket 4.4 06:10:50 16° SW 06:15:22 40° WNW 06:21:04 10° N
Cosmos 2237 4.4 06:11:23 18° SW 06:15:31 54° WNW 06:21:10 10° NNE
SL-16 R/B 3.9 06:13:43 14° WNW 06:15:39 16° NW 06:19:03 10° N
COSMOS 2428 2.7 06:14:18 13° SW 06:19:18 63° WNW 06:24:58 10° NNE
ERS-2 2.0 06:16:42 10° N 06:20:24 75° WNW 06:24:04 10° SSW
CENTAUR R/B 4.4 06:17:17 10° WNW 06:21:47 19° NNW 06:26:49 10° NNE
CZ-2C R/B 4.2 06:17:59 10° SSW 06:22:13 35° W 06:26:24 10° NNW
Thor Agena Rocket 3.6 06:18:33 10° SSE 06:23:37 82° ENE 06:28:40 10° NNW
ISS -1.9 06:24:19 15° SW 06:24:19 15° SW 06:25:51 10° S
USA 229 DEB 3.9 06:17:25 10° SSW 06:24:12 73° ESE 06:31:09 10° NE
USA 229 3.9 06:17:32 10° SSW 06:24:19 73° ESE 06:31:15 10° NE
Cosmos 2219 Rocket 2.2 06:20:31 10° SSW 06:26:06 86° ESE 06:31:44 10° NNE
Meteor 2-9 Rocket 4.2 06:20:30 10° N 06:26:15 89° WSW 06:31:47 10° S
Cosmos 2341 Rocket 4.0 06:21:25 10° NNW 06:27:33 60° W 06:33:38 10° S
Cosmos 1606 Rocket 4.3 06:23:32 10° N 06:27:58 59° E 06:32:23 10° SSE
Okean 2 4.0 06:24:21 10° S 06:28:25 60° E 06:32:33 10° NNE
Cosmos 2150 Rocket 4.4 06:24:09 10° NNW 06:29:25 71° ENE 06:34:45 10° SSE
Meteor 1-19 Rocket 4.3 06:25:47 10° SSW 06:31:18 57° WNW 06:36:57 10° N
SL-8 R/B 4.4 06:27:49 10° WNW 06:32:30 52° NNE 06:37:10 10° E
Cosmos 1844 Rocket 2.8 06:29:02 10° NNW 06:34:27 52° WSW 06:39:49 10° S
Meteor 1-15 Rocket 4.5 06:30:30 10° N 06:36:26 82° E 06:42:21 10° SSE
CZ-4B R/B 4.2 06:32:15 10° N 06:36:44 64° WNW 06:41:10 10° SSW
Cosmos 2218 Rocket 4.2 06:30:35 10° N 06:37:02 84° E 06:43:22 10° S
CZ-4B R/B 4.4 06:35:27 10° NNW 06:37:32 15° WNW 06:38:35 13° W
Meteor 1-28 Rocket 4.2 06:35:16 10° SSE 06:38:57 51° ENE 06:42:40 10° N
Cosmos 990 Rocket 4.4 06:35:48 10° NNW 06:40:59 67° ENE 06:46:06 10° SSE
Cosmos 1898 Rocket 3.4 06:36:07 10° NNW 06:41:19 71° WSW 06:46:27 10° S
Cosmos 2360 Rocket 3.6 06:39:41 12° W 06:43:19 21° NW 06:47:36 10° N
Okean O Rocket 3.3 06:41:50 10° NNW 06:44:39 17° WNW 06:47:18 11° W
Cosmos 2278 Rocket 2.4 06:39:09 10° NNW 06:44:52 82° ENE 06:50:31 10° SSE
Cosmos 468 Rocket 4.0 06:39:49 10° SSW 06:44:59 76° WNW 06:50:14 10° NNE
Cosmos 1441 Rocket 4.5 06:45:23 10° S 06:49:10 47° E 06:53:01 10° NNE
Meteor 2-4 Rocket 3.8 06:44:20 10° SSW 06:49:50 55° WNW 06:55:13 10° N
Cosmos 332 Rocket 4.4 06:45:55 10° S 06:50:44 61° ESE 06:55:36 10° NNE
Cosmos 2237 Rocket 2.4 06:45:20 10° SSW 06:51:00 82° ESE 06:56:45 10° NNE
Cosmos 405 Rocket 2.8 06:48:40 10° SSW 06:52:43 69° W 06:56:46 10° N
Feng Yun 1-1 Rocket 4.5 06:47:59 10° N 06:53:43 56° WNW 06:59:19 10° SSW
Ariane Rocket 4.4 06:49:08 10° NNE 06:53:57 43° E 06:58:45 10° S
Okean-O 3.1 06:50:53 10° N 06:55:04 42° WNW 06:59:14 10° SW
CZ-4C R/B 4.5 06:49:04 10° NNW 06:55:22 35° NE 07:02:16 10° ESE
Cosmos 405 4.5 06:52:46 10° N 06:56:11 42° ENE 06:59:34 10° SSE
COSMO-SKYMED 1 2.5 06:52:12 10° S 06:56:32 76° WSW 07:00:54 10° NNW
Cosmos 1515 4.2 06:53:54 10° S 06:57:43 68° E 07:01:35 10° NNE
Cosmos 1666 3.8 06:56:47 10° NW 06:59:59 25° W 07:03:10 10° SW
Cosmos 2228 3.6 06:56:07 10° N 07:00:25 66° E 07:04:45 10° SSE
Cosmos 1743 4.4 07:00:00 10° NW 07:02:09 15° W 07:04:18 10° WSW
Meteor 1-31 Rocket 3.7 06:59:00 10° N 07:02:16 27° WNW 07:05:31 10° SW
Cosmos 2285 Rocket 4.2 06:56:29 10° SSW 07:02:49 61° WNW 07:09:13 10° NNE
Cosmos 1726 Rocket 3.6 06:59:21 10° NNW 07:03:46 67° W 07:08:12 10° S
ADEOS II 3.6 07:02:52 10° NNW 07:06:14 17° WNW 07:09:36 10° W
ATLAS 5 CENTAUR R/B 2.5 07:01:11 10° NW 07:07:12 75° WSW 07:13:43 10° SSE
Cosmos 2333 Rocket 2.4 07:01:54 10° SW 07:07:30 57° WNW 07:13:11 10° NNE
DELTA 2 R/B (1) 3.8 07:02:03 10° WSW 07:07:32 64° S 07:13:02 10° E
BREEZE M DEB (TANK) 2.9 06:59:01 10° WNW 07:07:39 69° SW 07:10:43 10° SE
